Time,TemperatureF,DewpointF,PressureIn,WindDirection,WindDirectionDegrees,WindSpeedMPH,WindSpeedGustMPH,Humidity,HourlyPrecipIn,Conditions,Clouds,dailyrainin,SoftwareType,DateUTC
2013-03-09 00:12:00,40.1,39.1,29.94,ESE,112,6.3,-999.0,96,-99.99,,,0.00,Acu-Link.com,2013-03-09 06:12:00,
2013-03-09 00:27:00,39.9,38.9,29.95,SSE,157,7.3,-999.0,96,-99.99,,,0.00,Acu-Link.com,2013-03-09 06:27:00,
2013-03-09 00:42:00,40.1,39.1,29.95,SSE,157,7.8,-999.0,96,-99.99,,,0.00,Acu-Link.com,2013-03-09 06:42:00,
2013-03-09 00:57:00,39.4,38.9,29.94,SSE,157,8.3,-999.0,98,-99.99,,,0.04,Acu-Link.com,2013-03-09 06:57:00,
2013-03-09 01:13:00,40.1,39.6,29.95,SSE,157,7.8,-999.0,98,-99.99,,,0.04,Acu-Link.com,2013-03-09 07:13:00,
2013-03-09 01:28:00,40.3,39.8,29.95,SSE,157,10.4,-999.0,98,-99.99,,,0.05,Acu-Link.com,2013-03-09 07:28:00,
2013-03-09 01:43:00,40.1,39.6,29.94,SSE,157,8.9,-999.0,98,-99.99,,,0.08,Acu-Link.com,2013-03-09 07:43:00,
2013-03-09 01:58:00,40.1,39.6,29.93,SSE,157,8.3,-999.0,98,-99.99,,,0.08,Acu-Link.com,2013-03-09 07:58:00,
2013-03-09 02:13:00,39.9,39.4,29.92,SSE,157,9.9,-999.0,98,-99.99,,,0.08,Acu-Link.com,2013-03-09 08:13:00,
2013-03-09 02:28:00,39.7,39.2,29.91,SSE,157,8.9,-999.0,98,-99.99,,,0.08,Acu-Link.com,2013-03-09 08:28:00,
2013-03-09 02:43:00,39.7,39.2,29.90,SE,135,8.3,-999.0,98,-99.99,,,0.08,Acu-Link.com,2013-03-09 08:43:00,
2013-03-09 02:58:00,39.7,39.2,29.89,ESE,112,8.9,-999.0,98,-99.99,,,0.08,Acu-Link.com,2013-03-09 08:58:00,
2013-03-09 03:13:00,39.7,39.2,29.88,SSE,157,10.9,-999.0,98,-99.99,,,0.08,Acu-Link.com,2013-03-09 09:13:00,
2013-03-09 03:29:00,39.7,39.2,29.87,SSE,157,7.8,-999.0,98,-99.99,,,0.08,Acu-Link.com,2013-03-09 09:29:00,
2013-03-09 03:44:00,39.7,39.2,29.87,SSE,157,8.3,-999.0,98,-99.99,,,0.08,Acu-Link.com,2013-03-09 09:44:00,
2013-03-09 03:59:00,39.7,39.2,29.87,SSE,157,9.4,-999.0,98,-99.99,,,0.08,Acu-Link.com,2013-03-09 09:59:00,
2013-03-09 04:14:00,39.4,38.9,29.85,SSE,157,10.9,-999.0,98,-99.99,,,0.18,Acu-Link.com,2013-03-09 10:14:00,
2013-03-09 04:29:00,39.4,38.9,29.86,SSE,157,8.3,-999.0,98,-99.99,,,0.18,Acu-Link.com,2013-03-09 10:29:00,
2013-03-09 04:44:00,39.7,39.2,29.85,SSE,157,7.8,-999.0,98,-99.99,,,0.18,Acu-Link.com,2013-03-09 10:44:00,
2013-03-09 04:59:00,39.7,39.2,29.84,SSE,157,8.3,-999.0,98,-99.99,,,0.18,Acu-Link.com,2013-03-09 10:59:00,
2013-03-09 05:14:00,39.6,39.1,29.83,SSE,157,7.8,-999.0,98,-99.99,,,0.18,Acu-Link.com,2013-03-09 11:14:00,
2013-03-09 05:30:00,40.1,39.6,29.83,SSE,157,10.9,-999.0,98,-99.99,,,0.19,Acu-Link.com,2013-03-09 11:30:00,
2013-03-09 05:45:00,40.3,39.8,29.83,SSE,157,10.4,-999.0,98,-99.99,,,0.19,Acu-Link.com,2013-03-09 11:45:00,
2013-03-09 06:00:00,40.3,39.8,29.83,South,180,8.9,-999.0,98,-99.99,,,0.19,Acu-Link.com,2013-03-09 12:00:00,
2013-03-09 06:15:00,40.5,40.0,29.83,SSE,157,6.3,-999.0,98,-99.99,,,0.19,Acu-Link.com,2013-03-09 12:15:00,
2013-03-09 06:30:00,40.5,40.0,29.82,SSE,157,8.3,-999.0,98,-99.99,,,0.19,Acu-Link.com,2013-03-09 12:30:00,
2013-03-09 06:45:00,40.5,40.0,29.82,SSE,157,8.9,-999.0,98,-99.99,,,0.19,Acu-Link.com,2013-03-09 12:45:00,
2013-03-09 07:00:00,40.5,40.0,29.81,SSE,157,7.8,-999.0,98,-99.99,,,0.19,Acu-Link.com,2013-03-09 13:00:00,
2013-03-09 07:15:00,40.8,40.3,29.81,SSE,157,6.3,-999.0,98,-99.99,,,0.19,Acu-Link.com,2013-03-09 13:15:00,
2013-03-09 07:30:00,41.0,40.5,29.81,SSE,157,6.8,-999.0,98,-99.99,,,0.19,Acu-Link.com,2013-03-09 13:30:00,
2013-03-09 07:46:00,41.5,41.0,29.81,SSE,157,6.8,-999.0,98,-99.99,,,0.19,Acu-Link.com,2013-03-09 13:46:00,
2013-03-09 08:01:00,42.4,41.9,29.80,SSE,157,7.8,-999.0,98,-99.99,,,0.19,Acu-Link.com,2013-03-09 14:01:00,
2013-03-09 08:16:00,42.6,42.1,29.78,SSE,157,8.3,-999.0,98,-99.99,,,0.19,Acu-Link.com,2013-03-09 14:16:00,
2013-03-09 08:31:00,43.3,42.5,29.79,South,180,7.8,-999.0,97,-99.99,,,0.19,Acu-Link.com,2013-03-09 14:31:00,
2013-03-09 08:46:00,43.7,42.6,29.79,SSE,157,9.9,-999.0,96,-99.99,,,0.19,Acu-Link.com,2013-03-09 14:46:00,
2013-03-09 09:01:00,44.8,42.9,29.77,SSW,202,11.4,-999.0,93,-99.99,,,0.19,Acu-Link.com,2013-03-09 15:01:00,
2013-03-09 09:16:00,45.5,43.0,29.77,SE,135,6.8,-999.0,91,-99.99,,,0.19,Acu-Link.com,2013-03-09 15:16:00,
2013-03-09 09:32:00,45.5,43.0,29.76,SE,135,10.4,-999.0,91,-99.99,,,0.19,Acu-Link.com,2013-03-09 15:32:00,
2013-03-09 09:47:00,45.9,43.1,29.77,SSE,157,5.3,-999.0,90,-99.99,,,0.19,Acu-Link.com,2013-03-09 15:47:00,
2013-03-09 10:02:00,46.4,43.3,29.76,SE,135,7.3,-999.0,89,-99.99,,,0.19,Acu-Link.com,2013-03-09 16:02:00,
2013-03-09 10:17:00,47.1,43.4,29.74,SSE,157,9.4,-999.0,87,-99.99,,,0.19,Acu-Link.com,2013-03-09 16:17:00,
2013-03-09 10:32:00,47.8,44.1,29.74,SSE,157,9.4,-999.0,87,-99.99,,,0.19,Acu-Link.com,2013-03-09 16:32:00,
2013-03-09 11:14:00,48.0,44.0,29.72,SSW,202,9.4,-999.0,86,-99.99,,,0.19,Acu-Link.com,2013-03-09 17:14:00,
2013-03-09 11:29:00,51.3,45.3,29.72,SSE,157,7.3,-999.0,80,-99.99,,,0.19,Acu-Link.com,2013-03-09 17:29:00,
2013-03-09 11:47:00,52.2,45.9,29.71,SSE,157,7.3,-999.0,79,-99.99,,,0.19,Acu-Link.com,2013-03-09 17:47:00,
2013-03-09 12:02:00,53.8,46.8,29.70,SE,135,4.2,-999.0,77,-99.99,,,0.19,Acu-Link.com,2013-03-09 18:02:00,
2013-03-09 12:17:00,56.8,47.9,29.69,SSE,157,8.3,-999.0,72,-99.99,,,0.19,Acu-Link.com,2013-03-09 18:17:00,
2013-03-09 12:34:00,55.9,47.0,29.68,South,180,6.3,-999.0,72,-99.99,,,0.19,Acu-Link.com,2013-03-09 18:34:00,
2013-03-09 14:33:00,57.9,49.7,29.61,North,0,4.2,-999.0,74,-99.99,,,0.19,Acu-Link.com,2013-03-09 20:33:00,
2013-03-09 14:48:00,54.9,49.5,29.61,NE,45,3.7,-999.0,82,-99.99,,,0.19,Acu-Link.com,2013-03-09 20:48:00,
2013-03-09 15:05:00,54.3,48.3,29.61,ENE,67,2.7,-999.0,80,-99.99,,,0.19,Acu-Link.com,2013-03-09 21:05:00,
2013-03-09 15:20:00,53.1,47.8,29.61,NNE,22,4.2,-999.0,82,-99.99,,,0.19,Acu-Link.com,2013-03-09 21:20:00,
2013-03-09 15:36:00,51.8,47.7,29.61,North,0,6.3,-999.0,86,-99.99,,,0.19,Acu-Link.com,2013-03-09 21:36:00,
2013-03-09 15:51:00,50.4,47.0,29.61,NNE,22,6.3,-999.0,88,-99.99,,,0.19,Acu-Link.com,2013-03-09 21:51:00,
2013-03-09 16:06:00,49.3,46.2,29.61,NNW,337,7.3,-999.0,89,-99.99,,,0.19,Acu-Link.com,2013-03-09 22:06:00,
2013-03-09 16:21:00,47.8,45.9,29.60,NNE,22,6.8,-999.0,93,-99.99,,,0.19,Acu-Link.com,2013-03-09 22:21:00,
2013-03-09 16:36:00,48.0,45.5,29.59,NE,45,4.2,-999.0,91,-99.99,,,0.19,Acu-Link.com,2013-03-09 22:36:00,
2013-03-09 16:51:00,48.0,45.2,29.59,NNE,22,3.7,-999.0,90,-99.99,,,0.19,Acu-Link.com,2013-03-09 22:51:00,
2013-03-09 17:06:00,47.8,45.0,29.57,NE,45,2.2,-999.0,90,-99.99,,,0.19,Acu-Link.com,2013-03-09 23:06:00,
2013-03-09 17:21:00,48.2,44.8,29.57,NNE,22,3.7,-999.0,88,-99.99,,,0.19,Acu-Link.com,2013-03-09 23:21:00,
2013-03-09 17:36:00,48.4,44.7,29.58,North,0,4.2,-999.0,87,-99.99,,,0.19,Acu-Link.com,2013-03-09 23:36:00,
2013-03-09 17:52:00,47.7,44.3,29.58,NNW,337,4.2,-999.0,88,-99.99,,,0.19,Acu-Link.com,2013-03-09 23:52:00,
2013-03-09 18:07:00,47.5,44.4,29.59,SW,225,2.2,-999.0,89,-99.99,,,0.19,Acu-Link.com,2013-03-10 00:07:00,
2013-03-09 18:22:00,46.8,44.6,29.60,WNW,292,3.2,-999.0,92,-99.99,,,0.19,Acu-Link.com,2013-03-10 00:22:00,
2013-03-09 18:37:00,45.3,44.0,29.59,NW,315,4.2,-999.0,95,-99.99,,,0.19,Acu-Link.com,2013-03-10 00:37:00,
2013-03-09 18:52:00,44.1,43.6,29.59,NW,315,8.3,-999.0,98,-99.99,,,0.19,Acu-Link.com,2013-03-10 00:52:00,
2013-03-09 19:07:00,44.4,43.9,29.59,North,0,10.9,-999.0,98,-99.99,,,0.19,Acu-Link.com,2013-03-10 01:07:00,
2013-03-09 19:22:00,43.2,42.7,29.61,North,0,9.9,-999.0,98,-99.99,,,0.19,Acu-Link.com,2013-03-10 01:22:00,
2013-03-09 19:37:00,43.2,42.7,29.60,NE,45,11.4,-999.0,98,-99.99,,,0.22,Acu-Link.com,2013-03-10 01:37:00,
2013-03-09 20:08:00,43.7,43.2,29.60,East,90,6.3,-999.0,98,-99.99,,,0.31,Acu-Link.com,2013-03-10 02:08:00,
2013-03-09 20:23:00,43.5,43.0,29.59,East,90,4.2,-999.0,98,-99.99,,,0.33,Acu-Link.com,2013-03-10 02:23:00,
2013-03-09 20:38:00,43.9,43.4,29.59,East,90,5.8,-999.0,98,-99.99,,,0.36,Acu-Link.com,2013-03-10 02:38:00,
2013-03-09 20:53:00,43.7,43.2,29.60,NNE,22,4.7,-999.0,98,-99.99,,,0.38,Acu-Link.com,2013-03-10 02:53:00,
2013-03-09 21:08:00,43.2,42.7,29.61,NNW,337,1.7,-999.0,98,-99.99,,,0.40,Acu-Link.com,2013-03-10 03:08:00,
2013-03-09 21:23:00,43.3,42.8,29.60,ENE,67,3.7,-999.0,98,-99.99,,,0.43,Acu-Link.com,2013-03-10 03:23:00,
2013-03-09 21:38:00,43.5,43.0,29.60,ENE,67,3.2,-999.0,98,-99.99,,,0.51,Acu-Link.com,2013-03-10 03:38:00,
2013-03-09 21:53:00,43.7,43.2,29.60,North,0,3.7,-999.0,98,-99.99,,,0.54,Acu-Link.com,2013-03-10 03:53:00,
2013-03-09 22:09:00,43.7,43.2,29.60,NE,45,3.7,-999.0,98,-99.99,,,0.57,Acu-Link.com,2013-03-10 04:09:00,
2013-03-09 22:24:00,43.9,43.4,29.60,NE,45,2.7,-999.0,98,-99.99,,,0.65,Acu-Link.com,2013-03-10 04:24:00,
2013-03-09 22:39:00,44.8,44.3,29.59,NE,45,2.7,-999.0,98,-99.99,,,0.76,Acu-Link.com,2013-03-10 04:39:00,
2013-03-09 22:54:00,45.3,44.8,29.60,ESE,112,4.2,-999.0,98,-99.99,,,0.79,Acu-Link.com,2013-03-10 04:54:00,
2013-03-09 23:14:00,46.4,45.9,29.61,NE,45,6.8,-999.0,98,-99.99,,,0.87,Acu-Link.com,2013-03-10 05:14:00,
2013-03-09 23:29:00,46.4,45.9,29.60,SSW,202,4.2,-999.0,98,-99.99,,,1.05,Acu-Link.com,2013-03-10 05:29:00,
2013-03-09 23:44:00,49.3,48.8,29.57,ESE,112,8.3,-999.0,98,-99.99,,,1.12,Acu-Link.com,2013-03-10 05:44:00,